,,,PA_Meas_PMT16A,,PR_Meas_QMR101_102,,RH_Meas_QMH101,,SR_Meas_QMS101,,TA_Meas_QMH101,,GenWind,,GenWind,
date,time,status,PA,status,PR,status,RH,status,SR,status,TA,status,DirAvg,status,SpdAvg,
2014-02-13, 00:00:04,VALID,1009.23,VALID,0,VALID,83.1588,VALID,0.112112,VALID,26.1091,VALID,347,VALID,0.114844,
2014-02-13, 00:01:04,VALID,1009.25,VALID,0,VALID,83.2504,VALID,0.112112,VALID,26.1286,VALID,347,VALID,0.0226563,
2014-02-13, 00:02:04,VALID,1009.22,VALID,0,VALID,83.3876,VALID,0,VALID,26.1306,VALID,347,VALID,0.0492188,
2014-02-13, 00:03:04,VALID,1009.22,VALID,0,VALID,83.3571,VALID,0,VALID,26.0721,VALID,347,VALID,0.302344,
2014-02-13, 00:04:04,VALID,1009.24,VALID,0,VALID,83.4181,VALID,0,VALID,26.0721,VALID,348,VALID,0.300781,
2014-02-13, 00:05:04,VALID,1009.22,VALID,0,VALID,83.4944,VALID,0,VALID,26.0526,VALID,347,VALID,0.367969,
2014-02-13, 00:06:04,VALID,1009.21,VALID,0,VALID,83.5096,VALID,0,VALID,26.0331,VALID,347,VALID,0.276953,
2014-02-13, 00:07:04,VALID,1009.22,VALID,0,VALID,83.5935,VALID,0,VALID,26.0526,VALID,347,VALID,0.154687,
2014-02-13, 00:08:04,VALID,1009.16,VALID,0,VALID,83.6621,VALID,0,VALID,26.0136,VALID,347,VALID,0.457812,
2014-02-13, 00:09:04,VALID,1009.17,VALID,0,VALID,83.8375,VALID,0,VALID,26.0136,VALID,347,VALID,0.493359,
2014-02-13, 00:10:04,VALID,1009.17,VALID,0,VALID,83.8833,VALID,0,VALID,26.0331,VALID,347,VALID,0.528906,
2014-02-13, 00:11:04,VALID,1009.15,VALID,0,VALID,83.8909,VALID,0,VALID,25.9746,VALID,314,VALID,1.41445,
2014-02-13, 00:12:04,VALID,1009.14,VALID,0,VALID,83.7994,VALID,0,VALID,26.0331,VALID,299,VALID,0.410156,
2014-02-13, 00:13:04,VALID,1009.12,VALID,0,VALID,83.7994,VALID,0,VALID,25.9726,VALID,299,VALID,0.0550781,
2014-02-13, 00:14:04,VALID,1009.11,VALID,0,VALID,83.8299,VALID,0,VALID,25.9726,VALID,299,VALID,0.582422,
2014-02-13, 00:15:04,VALID,1009.09,VALID,0,VALID,83.8375,VALID,0,VALID,26.0136,VALID,303,VALID,0.815625,
2014-02-13, 00:16:04,VALID,1009.12,VALID,0,VALID,83.8147,VALID,0,VALID,25.9921,VALID,346,VALID,0.662109,
2014-02-13, 00:17:04,VALID,1009.09,VALID,0,VALID,83.9595,VALID,0,VALID,25.9726,VALID,6,VALID,0.71875,
2014-02-13, 00:18:04,VALID,1009.08,VALID,0,VALID,83.9595,VALID,0,VALID,25.9726,VALID,11,VALID,0.457812,
2014-02-13, 00:19:04,VALID,1009.08,VALID,0,VALID,83.9901,VALID,0,VALID,25.9921,VALID,7,VALID,0.111719,
2014-02-13, 00:20:04,VALID,1009.07,VALID,0,VALID,84.0129,VALID,0,VALID,25.9531,VALID,5,VALID,0.602734,
2014-02-13, 00:21:04,VALID,1009.08,VALID,0,VALID,84.0358,VALID,0,VALID,25.9551,VALID,5,VALID,0.363672,
2014-02-13, 00:22:04,VALID,1009.08,VALID,0,VALID,84.0282,VALID,0,VALID,25.9746,VALID,5,VALID,0.0328125,
2014-02-13, 00:23:04,VALID,1009.1,VALID,0,VALID,84.0587,VALID,0,VALID,25.9746,VALID,5,VALID,0.429688,
2014-02-13, 00:24:04,VALID,1009.08,VALID,0,VALID,84.0206,VALID,0,VALID,25.9551,VALID,307,VALID,0.784766,
2014-02-13, 00:25:04,VALID,1009.06,VALID,0,VALID,83.9824,VALID,0,VALID,25.9941,VALID,310,VALID,0.114844,
2014-02-13, 00:26:04,VALID,1009.07,VALID,0,VALID,83.9824,VALID,0,VALID,25.9746,VALID,310,VALID,0.253906,
2014-02-13, 00:27:04,VALID,1009.05,VALID,0,VALID,83.9748,VALID,0,VALID,25.9746,VALID,311,VALID,0.262891,
2014-02-13, 00:28:04,VALID,1009.04,VALID,0,VALID,84.0511,VALID,0,VALID,25.9746,VALID,294,VALID,1.27578,
2014-02-13, 00:29:04,VALID,1009.02,VALID,0,VALID,84.0511,VALID,0,VALID,25.9746,VALID,281,VALID,0.0460938,
2014-02-13, 00:30:04,VALID,1009.01,VALID,0,VALID,84.0358,VALID,0,VALID,25.9746,VALID,317,VALID,0.853906,
2014-02-13, 00:31:04,VALID,1008.99,VALID,0,VALID,83.9672,VALID,0,VALID,25.9531,VALID,312,VALID,1.09102,
2014-02-13, 00:32:04,VALID,1008.95,VALID,0,VALID,83.9595,VALID,0,VALID,25.9941,VALID,307,VALID,0.680859,
2014-02-13, 00:33:04,VALID,1008.95,VALID,0,VALID,83.807,VALID,0,VALID,26.0136,VALID,317,VALID,0.356641,
2014-02-13, 00:34:04,VALID,1008.91,VALID,0,VALID,83.7994,VALID,0,VALID,26.0136,VALID,306,VALID,0.273047,
2014-02-13, 00:35:04,VALID,1008.91,VALID,0,VALID,83.7003,VALID,0,VALID,25.9921,VALID,301,VALID,1.22891,
2014-02-13, 00:36:04,VALID,1008.88,VALID,0,VALID,83.6545,VALID,0,VALID,26.0331,VALID,303,VALID,0.612109,
2014-02-13, 00:37:04,VALID,1008.85,VALID,0,VALID,83.5935,VALID,0,VALID,26.0526,VALID,294,VALID,0.419922,
2014-02-13, 00:38:04,VALID,1008.87,VALID,0,VALID,83.6011,VALID,0,VALID,26.0526,VALID,300,VALID,0.310937,
2014-02-13, 00:39:04,VALID,1008.88,VALID,0,VALID,83.5783,VALID,0,VALID,26.0721,VALID,323,VALID,1.04141,
2014-02-13, 00:40:04,VALID,1008.88,VALID,0,VALID,83.563,VALID,0,VALID,26.0721,VALID,293,VALID,1.25234,
2014-02-13, 00:41:04,VALID,1008.83,VALID,0,VALID,83.7079,VALID,0,VALID,26.0526,VALID,214,VALID,0.201953,
2014-02-13, 00:42:04,VALID,1008.83,VALID,0,VALID,83.5249,VALID,0,VALID,26.0506,VALID,282,VALID,0.731641,
2014-02-13, 00:43:04,VALID,1008.82,VALID,0,VALID,83.4867,VALID,0,VALID,26.0936,VALID,279,VALID,0.45,
2014-02-13, 00:44:04,VALID,1008.82,VALID,0,VALID,83.4791,VALID,0,VALID,26.0721,VALID,291,VALID,0.590625,
2014-02-13, 00:45:04,VALID,1008.79,VALID,0,VALID,83.563,VALID,0,VALID,26.0721,VALID,279,VALID,0.271875,
2014-02-13, 00:46:04,VALID,1008.77,VALID,0,VALID,83.5859,VALID,0,VALID,26.0916,VALID,281,VALID,0.465625,
2014-02-13, 00:47:04,VALID,1008.77,VALID,0,VALID,83.6545,VALID,0,VALID,26.0331,VALID,297,VALID,0.160156,
2014-02-13, 00:48:04,VALID,1008.78,VALID,0,VALID,83.7155,VALID,0,VALID,26.0331,VALID,317,VALID,0.937891,
2014-02-13, 00:49:04,VALID,1008.79,VALID,0,VALID,83.8985,VALID,0,VALID,26.0136,VALID,328,VALID,0.454688,
2014-02-13, 00:50:04,VALID,1008.78,VALID,0,VALID,83.9519,VALID,0,VALID,25.9726,VALID,324,VALID,0.660547,
2014-02-13, 00:51:04,VALID,1008.78,VALID,0,VALID,83.9977,VALID,0,VALID,25.9551,VALID,345,VALID,0.805078,
2014-02-13, 00:52:04,VALID,1008.78,VALID,0,VALID,84.0968,VALID,0,VALID,25.9746,VALID,278,VALID,0.739062,
2014-02-13, 00:53:04,VALID,1008.79,VALID,0,VALID,84.1654,VALID,0,VALID,25.9746,VALID,275,VALID,0.0113281,
2014-02-13, 00:54:04,VALID,1008.85,VALID,0,VALID,84.1654,VALID,0,VALID,25.9551,VALID,276,VALID,0.628906,
2014-02-13, 00:55:04,VALID,1008.86,VALID,0,VALID,84.2798,VALID,0,VALID,25.9551,VALID,280,VALID,0.154297,
2014-02-13, 00:56:04,VALID,1008.87,VALID,0,VALID,84.2188,VALID,0,VALID,25.9336,VALID,280,VALID,0,
2014-02-13, 00:57:04,VALID,1008.86,VALID,0,VALID,84.2036,VALID,0,VALID,25.9356,VALID,280,VALID,0.137891,
2014-02-13, 00:58:04,VALID,1008.88,VALID,0,VALID,84.2188,VALID,0,VALID,25.9161,VALID,280,VALID,0.00859375,
2014-02-13, 00:59:04,VALID,1008.87,VALID,0,VALID,84.2875,VALID,0,VALID,25.9356,VALID,280,VALID,0.0105469,
2014-02-13, 01:00:04,VALID,1008.89,VALID,0,VALID,84.2264,VALID,0,VALID,25.9161,VALID,281,VALID,0.182812,
2014-02-13, 01:01:04,VALID,1008.91,VALID,0,VALID,84.2264,VALID,0,VALID,25.8966,VALID,281,VALID,0,
2014-02-13, 01:02:04,VALID,1008.92,VALID,0,VALID,84.2798,VALID,0,VALID,25.9161,VALID,280,VALID,0,
2014-02-13, 01:03:04,VALID,1008.92,VALID,0,VALID,84.2951,VALID,0,VALID,25.8751,VALID,280,VALID,0,
2014-02-13, 01:04:04,VALID,1008.88,VALID,0,VALID,84.3408,VALID,0,VALID,25.8966,VALID,281,VALID,0,
2014-02-13, 01:05:04,VALID,1008.88,VALID,0,VALID,84.4323,VALID,0,VALID,25.9161,VALID,280,VALID,0,
2014-02-13, 01:06:04,VALID,1008.86,VALID,0,VALID,84.3408,VALID,0,VALID,25.9161,VALID,280,VALID,0,
2014-02-13, 01:07:04,VALID,1008.84,VALID,0,VALID,84.3408,VALID,0,VALID,25.8946,VALID,281,VALID,0,
2014-02-13, 01:08:04,VALID,1008.81,VALID,0,VALID,84.3942,VALID,0,VALID,25.9161,VALID,280,VALID,0.185937,
2014-02-13, 01:09:04,VALID,1008.8,VALID,0,VALID,84.44,VALID,0,VALID,25.8966,VALID,287,VALID,0.757422,
2014-02-13, 01:10:04,VALID,1008.8,VALID,0,VALID,84.4476,VALID,0,VALID,25.8966,VALID,287,VALID,0.330859,
2014-02-13, 01:11:04,VALID,1008.8,VALID,0,VALID,84.4857,VALID,0,VALID,25.9161,VALID,290,VALID,0.501953,
2014-02-13, 01:12:04,VALID,1008.77,VALID,0,VALID,84.7069,VALID,0,VALID,25.8576,VALID,288,VALID,0.166797,
2014-02-13, 01:13:04,VALID,1008.76,VALID,0,VALID,84.7908,VALID,0,VALID,25.8576,VALID,289,VALID,0.622266,
2014-02-13, 01:14:04,VALID,1008.76,VALID,0,VALID,84.9509,VALID,0,VALID,25.8186,VALID,288,VALID,0.355469,
2014-02-13, 01:15:04,VALID,1008.76,VALID,0,VALID,85.2407,VALID,0,VALID,25.7581,VALID,288,VALID,0.68125,
2014-02-13, 01:16:04,VALID,1008.76,VALID,0,VALID,85.5076,VALID,0,VALID,25.7406,VALID,288,VALID,0.237891,
2014-02-13, 01:17:04,VALID,1008.74,VALID,0,VALID,85.6982,VALID,0,VALID,25.7016,VALID,288,VALID,0.617578,
2014-02-13, 01:18:04,VALID,1008.72,VALID,0,VALID,85.9499,VALID,0,VALID,25.6412,VALID,288,VALID,0.648047,
2014-02-13, 01:19:04,VALID,1008.71,VALID,0,VALID,86.1939,VALID,0,VALID,25.6236,VALID,288,VALID,0.299219,
2014-02-13, 01:20:04,VALID,1008.69,VALID,0,VALID,86.3922,VALID,0,VALID,25.5632,VALID,290,VALID,0.396484,
2014-02-13, 01:21:04,VALID,1008.68,VALID,0,VALID,86.5523,VALID,0,VALID,25.5846,VALID,290,VALID,0.3625,
2014-02-13, 01:22:04,VALID,1008.67,VALID,0,VALID,86.6743,VALID,0,VALID,25.5242,VALID,290,VALID,0.239063,
2014-02-13, 01:23:04,VALID,1008.67,VALID,0,VALID,86.7048,VALID,0,VALID,25.5261,VALID,295,VALID,0.545313,
2014-02-13, 01:24:04,VALID,1008.66,VALID,0,VALID,86.6896,VALID,0,VALID,25.5066,VALID,328,VALID,0.536719,
2014-02-13, 01:25:04,VALID,1008.65,VALID,0,VALID,86.6972,VALID,0,VALID,25.5261,VALID,330,VALID,0.0386719,
2014-02-13, 01:26:04,VALID,1008.67,VALID,0,VALID,86.6209,VALID,0,VALID,25.5066,VALID,330,VALID,0.346484,
2014-02-13, 01:27:04,VALID,1008.7,VALID,0,VALID,86.6286,VALID,0,VALID,25.5261,VALID,329,VALID,0.262891,
2014-02-13, 01:28:04,VALID,1008.67,VALID,0,VALID,86.6438,VALID,0,VALID,25.5066,VALID,329,VALID,0.142969,
2014-02-13, 01:29:04,VALID,1008.68,VALID,0,VALID,86.6362,VALID,0,VALID,25.5261,VALID,330,VALID,0,
2014-02-13, 01:30:04,VALID,1008.67,VALID,0,VALID,86.6514,VALID,0,VALID,25.5261,VALID,330,VALID,0,
2014-02-13, 01:31:04,VALID,1008.7,VALID,0,VALID,86.6896,VALID,0,VALID,25.4871,VALID,330,VALID,0.003125,
2014-02-13, 01:32:04,VALID,1008.68,VALID,0,VALID,86.6819,VALID,0,VALID,25.5066,VALID,330,VALID,0.375781,
2014-02-13, 01:33:04,VALID,1008.68,VALID,0,VALID,86.5599,VALID,0,VALID,25.5671,VALID,330,VALID,0.297266,
2014-02-13, 01:34:04,VALID,1008.69,VALID,0,VALID,86.2625,VALID,0,VALID,25.5846,VALID,215,VALID,0.610547,
2014-02-13, 01:35:04,VALID,1008.69,VALID,0,VALID,86.1863,VALID,0,VALID,25.6236,VALID,227,VALID,0.666797,
2014-02-13, 01:36:05,VALID,1008.71,VALID,0,VALID,85.927,VALID,0,VALID,25.6412,VALID,208,VALID,0.566016,
2014-02-13, 01:37:05,VALID,1008.7,VALID,0,VALID,85.6906,VALID,0,VALID,25.6821,VALID,209,VALID,0.296484,
2014-02-13, 01:38:05,VALID,1008.72,VALID,0,VALID,85.4923,VALID,0,VALID,25.7016,VALID,209,VALID,0.355469,
2014-02-13, 01:39:05,VALID,1008.71,VALID,0,VALID,85.3398,VALID,0,VALID,25.7016,VALID,219,VALID,0.921094,
2014-02-13, 01:40:05,VALID,1008.71,VALID,0,VALID,85.1187,VALID,0,VALID,25.7601,VALID,227,VALID,0.756641,
2014-02-13, 01:41:05,VALID,1008.7,VALID,0,VALID,85.0043,VALID,0,VALID,25.7601,VALID,226,VALID,0.511328,
2014-02-13, 01:42:05,VALID,1008.72,VALID,0,VALID,84.867,VALID,0,VALID,25.7991,VALID,225,VALID,0.520703,
2014-02-13, 01:43:05,VALID,1008.72,VALID,0,VALID,84.8441,VALID,0,VALID,25.7796,VALID,226,VALID,0.525781,
2014-02-13, 01:44:05,VALID,1008.71,VALID,0,VALID,84.8594,VALID,0,VALID,25.7776,VALID,218,VALID,0.683203,
2014-02-13, 01:45:05,VALID,1008.71,VALID,0,VALID,84.8289,VALID,0,VALID,25.7991,VALID,214,VALID,0.876172,
2014-02-13, 01:46:05,VALID,1008.71,VALID,0,VALID,84.7297,VALID,0,VALID,25.7991,VALID,235,VALID,0.439063,
2014-02-13, 01:47:05,VALID,1008.68,VALID,0,VALID,84.7069,VALID,0,VALID,25.8166,VALID,234,VALID,0.716016,
2014-02-13, 01:48:05,VALID,1008.71,VALID,0,VALID,84.6306,VALID,0,VALID,25.8166,VALID,233,VALID,0.447266,
2014-02-13, 01:49:05,VALID,1008.68,VALID,0,VALID,84.6611,VALID,0,VALID,25.8166,VALID,233,VALID,0.0382813,
2014-02-13, 01:50:05,VALID,1008.7,VALID,0,VALID,84.684,VALID,0.112112,VALID,25.7971,VALID,233,VALID,0,
2014-02-13, 01:51:05,VALID,1008.69,VALID,0,VALID,84.7831,VALID,0,VALID,25.8186,VALID,233,VALID,0,
2014-02-13, 01:52:05,VALID,1008.68,VALID,0,VALID,84.867,VALID,0,VALID,25.7971,VALID,233,VALID,0,
2014-02-13, 01:53:05,VALID,1008.67,VALID,0,VALID,84.9509,VALID,0,VALID,25.7991,VALID,233,VALID,0,
2014-02-13, 01:54:05,VALID,1008.69,VALID,0,VALID,84.9585,VALID,0,VALID,25.7776,VALID,233,VALID,0,
2014-02-13, 01:55:05,VALID,1008.68,VALID,0,VALID,85.0272,VALID,0,VALID,25.7796,VALID,233,VALID,0,
2014-02-13, 01:56:05,VALID,1008.65,VALID,0,VALID,85.05,VALID,0,VALID,25.7581,VALID,233,VALID,0,
2014-02-13, 01:57:05,VALID,1008.64,VALID,0,VALID,85.1263,VALID,0,VALID,25.7601,VALID,233,VALID,0,
2014-02-13, 01:58:05,VALID,1008.66,VALID,0,VALID,85.1415,VALID,0,VALID,25.7387,VALID,233,VALID,0,
2014-02-13, 01:59:05,VALID,1008.63,VALID,0,VALID,85.2483,VALID,0,VALID,25.7387,VALID,233,VALID,0,
2014-02-13, 02:00:05,VALID,1008.64,VALID,0,VALID,85.2483,VALID,0,VALID,25.6997,VALID,233,VALID,0,
2014-02-13, 02:01:05,VALID,1008.63,VALID,0,VALID,85.3398,VALID,0,VALID,25.6802,VALID,234,VALID,0.287109,
2014-02-13, 02:02:05,VALID,1008.61,VALID,0,VALID,85.4923,VALID,0,VALID,25.6607,VALID,234,VALID,0.0078125,
2014-02-13, 02:03:05,VALID,1008.59,VALID,0,VALID,85.4389,VALID,0,VALID,25.6821,VALID,234,VALID,0.124609,
2014-02-13, 02:04:05,VALID,1008.58,VALID,0,VALID,85.5457,VALID,0,VALID,25.6802,VALID,234,VALID,0.0175781,
2014-02-13, 02:05:05,VALID,1008.6,VALID,0,VALID,85.3017,VALID,0.112112,VALID,25.6607,VALID,234,VALID,0.218359,
2014-02-13, 02:06:05,VALID,1008.55,VALID,0,VALID,85.1949,VALID,0,VALID,25.6607,VALID,234,VALID,0.298047,
2014-02-13, 02:07:05,VALID,1008.57,VALID,0,VALID,85.0195,VALID,0,VALID,25.6821,VALID,315,VALID,0.350781,
2014-02-13, 02:08:05,VALID,1008.55,VALID,0,VALID,85.111,VALID,0,VALID,25.7016,VALID,315,VALID,0.0378906,
2014-02-13, 02:09:05,VALID,1008.55,VALID,0,VALID,84.9585,VALID,0,VALID,25.6802,VALID,315,VALID,0.321094,
2014-02-13, 02:10:05,VALID,1008.5,VALID,0,VALID,84.7908,VALID,0,VALID,25.7016,VALID,315,VALID,0.846484,
2014-02-13, 02:11:05,VALID,1008.51,VALID,0,VALID,84.7526,VALID,0,VALID,25.6802,VALID,321,VALID,0.778125,
2014-02-13, 02:12:05,VALID,1008.52,VALID,0,VALID,84.6459,VALID,0,VALID,25.6607,VALID,346,VALID,0.940234,
2014-02-13, 02:13:05,VALID,1008.51,VALID,0,VALID,84.9661,VALID,0,VALID,25.6607,VALID,360,VALID,0.815234,
2014-02-13, 02:14:05,VALID,1008.48,VALID,0,VALID,85.3093,VALID,0,VALID,25.6626,VALID,1,VALID,0.178516,
2014-02-13, 02:15:05,VALID,1008.47,VALID,0,VALID,85.5991,VALID,0,VALID,25.6236,VALID,1,VALID,0.483594,
2014-02-13, 02:16:05,VALID,1008.43,VALID,0,VALID,85.5915,VALID,0,VALID,25.5632,VALID,359,VALID,0.910156,
2014-02-13, 02:17:05,VALID,1008.43,VALID,0,VALID,85.9041,VALID,0,VALID,25.5242,VALID,358,VALID,0.609766,
2014-02-13, 02:18:05,VALID,1008.41,VALID,0,VALID,86.0185,VALID,0.112112,VALID,25.5047,VALID,358,VALID,0.515234,
2014-02-13, 02:19:05,VALID,1008.41,VALID,0,VALID,86.1863,VALID,0,VALID,25.4871,VALID,359,VALID,0.544531,
2014-02-13, 02:20:05,VALID,1008.43,VALID,0,VALID,86.1939,VALID,0,VALID,25.4677,VALID,358,VALID,0.376953,
2014-02-13, 02:21:05,VALID,1008.41,VALID,0,VALID,86.2701,VALID,0,VALID,25.4462,VALID,358,VALID,0.274219,
2014-02-13, 02:22:05,VALID,1008.45,VALID,0,VALID,86.1634,VALID,0.112112,VALID,25.4267,VALID,358,VALID,0.40625,
2014-02-13, 02:23:05,VALID,1008.43,VALID,0,VALID,86.1176,VALID,0,VALID,25.4482,VALID,358,VALID,0,
2014-02-13, 02:24:05,VALID,1008.46,VALID,0,VALID,86.1253,VALID,0,VALID,25.4267,VALID,359,VALID,0.235547,
2014-02-13, 02:25:05,VALID,1008.48,VALID,0,VALID,85.9422,VALID,0,VALID,25.4482,VALID,358,VALID,0.2875,
2014-02-13, 02:26:05,VALID,1008.49,VALID,0,VALID,85.6601,VALID,0,VALID,25.4462,VALID,359,VALID,0.283984,
2014-02-13, 02:27:05,VALID,1008.53,VALID,0,VALID,85.2559,VALID,0.112112,VALID,25.4852,VALID,358,VALID,0.108984,
2014-02-13, 02:28:05,VALID,1008.53,VALID,0,VALID,85.2483,VALID,0,VALID,25.5456,VALID,359,VALID,0.0839844,
2014-02-13, 02:29:05,VALID,1008.54,VALID,0,VALID,84.9356,VALID,0,VALID,25.5456,VALID,359,VALID,0.671094,
2014-02-13, 02:30:05,VALID,1008.53,VALID,0,VALID,84.7526,VALID,0.112112,VALID,25.5632,VALID,358,VALID,0,
2014-02-13, 02:31:05,VALID,1008.52,VALID,0,VALID,84.5544,VALID,0.112112,VALID,25.6022,VALID,359,VALID,0.529297,
2014-02-13, 02:32:05,VALID,1008.53,VALID,0,VALID,84.4018,VALID,0,VALID,25.6217,VALID,290,VALID,0.816797,
2014-02-13, 02:33:05,VALID,1008.54,VALID,0,VALID,84.2341,VALID,0,VALID,25.6607,VALID,213,VALID,0.40625,
2014-02-13, 02:34:05,VALID,1008.54,VALID,0,VALID,83.929,VALID,0,VALID,25.6607,VALID,213,VALID,0.145703,
2014-02-13, 02:35:05,VALID,1008.53,VALID,0,VALID,83.8299,VALID,0,VALID,25.6802,VALID,214,VALID,0.478516,
2014-02-13, 02:36:05,VALID,1008.51,VALID,0,VALID,83.4791,VALID,0.112112,VALID,25.6997,VALID,216,VALID,0.165234,
2014-02-13, 02:37:05,VALID,1008.53,VALID,0,VALID,83.3495,VALID,0,VALID,25.7192,VALID,221,VALID,0.142188,
2014-02-13, 02:38:05,VALID,1008.56,VALID,0,VALID,83.4029,VALID,0,VALID,25.7387,VALID,221,VALID,0,
2014-02-13, 02:39:05,VALID,1008.53,VALID,0,VALID,83.3724,VALID,0,VALID,25.7192,VALID,221,VALID,0,
2014-02-13, 02:40:05,VALID,1008.51,VALID,0,VALID,83.3952,VALID,0,VALID,25.7211,VALID,221,VALID,0.320313,
2014-02-13, 02:41:05,VALID,1008.54,VALID,0,VALID,83.4867,VALID,0,VALID,25.7211,VALID,221,VALID,0.0078125,
2014-02-13, 02:42:05,VALID,1008.53,VALID,0,VALID,83.5096,VALID,0,VALID,25.6997,VALID,221,VALID,0,
2014-02-13, 02:43:05,VALID,1008.55,VALID,0,VALID,83.563,VALID,0,VALID,25.7016,VALID,221,VALID,0,
2014-02-13, 02:44:05,VALID,1008.55,VALID,0,VALID,83.5783,VALID,0,VALID,25.6821,VALID,221,VALID,0,
2014-02-13, 02:45:05,VALID,1008.58,VALID,0,VALID,83.6011,VALID,0,VALID,25.6412,VALID,221,VALID,0.00234375,
2014-02-13, 02:46:05,VALID,1008.57,VALID,0,VALID,83.5935,VALID,0.112112,VALID,25.6217,VALID,221,VALID,0.283203,
2014-02-13, 02:47:05,VALID,1008.6,VALID,0,VALID,83.624,VALID,0.112112,VALID,25.5827,VALID,221,VALID,0.361328,
2014-02-13, 02:48:05,VALID,1008.61,VALID,0,VALID,83.8147,VALID,0,VALID,25.5846,VALID,233,VALID,0.527734,
2014-02-13, 02:49:05,VALID,1008.63,VALID,0,VALID,84.0282,VALID,0,VALID,25.5456,VALID,261,VALID,0.466797,
2014-02-13, 02:50:05,VALID,1008.62,VALID,0,VALID,84.1426,VALID,0,VALID,25.5047,VALID,260,VALID,0.364062,
2014-02-13, 02:51:05,VALID,1008.6,VALID,0,VALID,84.4095,VALID,0,VALID,25.4852,VALID,261,VALID,0.285156,
2014-02-13, 02:52:05,VALID,1008.63,VALID,0,VALID,84.6077,VALID,0,VALID,25.4482,VALID,260,VALID,0,
2014-02-13, 02:53:05,VALID,1008.6,VALID,0,VALID,84.8518,VALID,0,VALID,25.4072,VALID,261,VALID,0,
2014-02-13, 02:54:05,VALID,1008.61,VALID,0,VALID,85.0043,VALID,0,VALID,25.3897,VALID,261,VALID,0,
2014-02-13, 02:55:05,VALID,1008.6,VALID,0,VALID,85.2025,VALID,0,VALID,25.3702,VALID,260,VALID,0,
2014-02-13, 02:56:05,VALID,1008.58,VALID,0,VALID,85.3093,VALID,0,VALID,25.3293,VALID,261,VALID,0.139844,
2014-02-13, 02:57:05,VALID,1008.58,VALID,0,VALID,85.4084,VALID,0,VALID,25.3117,VALID,262,VALID,0,
2014-02-13, 02:58:05,VALID,1008.56,VALID,0,VALID,85.5228,VALID,0,VALID,25.2708,VALID,261,VALID,0.0558594,
2014-02-13, 02:59:05,VALID,1008.57,VALID,0,VALID,85.4999,VALID,0,VALID,25.2727,VALID,260,VALID,0.124219,
2014-02-13, 03:00:05,VALID,1008.6,VALID,0,VALID,85.5228,VALID,0,VALID,25.2532,VALID,262,VALID,0.219922,
2014-02-13, 03:01:05,VALID,1008.59,VALID,0,VALID,85.5762,VALID,0,VALID,25.2532,VALID,262,VALID,0.0078125,
2014-02-13, 03:02:05,VALID,1008.59,VALID,0,VALID,85.5533,VALID,0,VALID,25.2123,VALID,261,VALID,0.0226563,
2014-02-13, 03:03:05,VALID,1008.61,VALID,0,VALID,85.6982,VALID,0,VALID,25.2337,VALID,259,VALID,0.0703125,
2014-02-13, 03:04:05,VALID,1008.61,VALID,0,VALID,85.7211,VALID,0,VALID,25.2142,VALID,262,VALID,0.148438,
2014-02-13, 03:05:05,VALID,1008.62,VALID,0,VALID,85.7211,VALID,0,VALID,25.2142,VALID,260,VALID,0.0863281,
2014-02-13, 03:06:05,VALID,1008.64,VALID,0,VALID,85.744,VALID,0,VALID,25.1733,VALID,262,VALID,0,
2014-02-13, 03:07:05,VALID,1008.65,VALID,0,VALID,85.7592,VALID,0,VALID,25.1947,VALID,260,VALID,0,
2014-02-13, 03:08:05,VALID,1008.67,VALID,0,VALID,85.866,VALID,0,VALID,25.1733,VALID,261,VALID,0.0292969,
2014-02-13, 03:09:05,VALID,1008.67,VALID,0,VALID,85.8812,VALID,0,VALID,25.1752,VALID,261,VALID,0,
2014-02-13, 03:10:05,VALID,1008.68,VALID,0,VALID,86.0109,VALID,0,VALID,25.1538,VALID,261,VALID,0,
2014-02-13, 03:11:05,VALID,1008.7,VALID,0,VALID,86.1253,VALID,0,VALID,25.1752,VALID,261,VALID,0,
2014-02-13, 03:12:05,VALID,1008.7,VALID,0,VALID,86.0185,VALID,0,VALID,25.1557,VALID,261,VALID,0,
2014-02-13, 03:13:05,VALID,1008.71,VALID,0,VALID,85.9117,VALID,0,VALID,25.0954,VALID,261,VALID,0,
2014-02-13, 03:14:05,VALID,1008.71,VALID,0,VALID,86.11,VALID,0.112112,VALID,25.1362,VALID,261,VALID,0,
2014-02-13, 03:15:05,VALID,1008.71,VALID,0,VALID,86.2778,VALID,0,VALID,25.1167,VALID,261,VALID,0,
2014-02-13, 03:16:05,VALID,1008.73,VALID,0,VALID,86.3235,VALID,0,VALID,25.0973,VALID,261,VALID,0,
2014-02-13, 03:17:05,VALID,1008.74,VALID,0,VALID,86.4074,VALID,0,VALID,25.0564,VALID,261,VALID,0,
2014-02-13, 03:18:05,VALID,1008.76,VALID,0,VALID,86.6209,VALID,0,VALID,25.0973,VALID,261,VALID,0,
2014-02-13, 03:19:05,VALID,1008.76,VALID,0,VALID,86.7811,VALID,0,VALID,25.0778,VALID,261,VALID,0,
2014-02-13, 03:20:05,VALID,1008.76,VALID,0,VALID,86.6133,VALID,0,VALID,25.0778,VALID,261,VALID,0,
2014-02-13, 03:21:05,VALID,1008.77,VALID,0,VALID,86.6057,VALID,0,VALID,25.0583,VALID,261,VALID,0,
2014-02-13, 03:22:05,VALID,1008.79,VALID,0,VALID,86.7887,VALID,0,VALID,25.0778,VALID,261,VALID,0,
2014-02-13, 03:23:05,VALID,1008.8,VALID,0,VALID,86.6896,VALID,0,VALID,25.0583,VALID,260,VALID,0,
2014-02-13, 03:24:05,VALID,1008.83,VALID,0,VALID,86.804,VALID,0,VALID,25.0583,VALID,260,VALID,0,
2014-02-13, 03:25:05,VALID,1008.84,VALID,0,VALID,86.9641,VALID,0,VALID,25.0388,VALID,261,VALID,0,
2014-02-13, 03:26:05,VALID,1008.83,VALID,0,VALID,87.0404,VALID,0,VALID,25.0388,VALID,261,VALID,0,
2014-02-13, 03:27:05,VALID,1008.85,VALID,0,VALID,87.17,VALID,0,VALID,25.0174,VALID,261,VALID,0,
2014-02-13, 03:28:05,VALID,1008.89,VALID,0,VALID,87.1547,VALID,0,VALID,24.9998,VALID,261,VALID,0,
2014-02-13, 03:29:05,VALID,1008.87,VALID,0,VALID,87.0937,VALID,0,VALID,24.9803,VALID,261,VALID,0,
2014-02-13, 03:30:05,VALID,1008.86,VALID,0,VALID,87.0937,VALID,0,VALID,24.9608,VALID,261,VALID,0,
2014-02-13, 03:31:05,VALID,1008.85,VALID,0,VALID,87.0022,VALID,0,VALID,24.9413,VALID,261,VALID,0,
2014-02-13, 03:32:05,VALID,1008.81,VALID,0,VALID,87.0022,VALID,0,VALID,24.8809,VALID,261,VALID,0,
2014-02-13, 03:33:05,VALID,1008.81,VALID,0,VALID,87.1395,VALID,0,VALID,24.9023,VALID,261,VALID,0,
2014-02-13, 03:34:05,VALID,1008.81,VALID,0,VALID,87.2462,VALID,0,VALID,24.8809,VALID,266,VALID,0.455078,
2014-02-13, 03:35:05,VALID,1008.78,VALID,0,VALID,87.2767,VALID,0,VALID,24.8809,VALID,267,VALID,0.262891,
2014-02-13, 03:36:05,VALID,1008.79,VALID,0,VALID,87.2386,VALID,0,VALID,24.9004,VALID,266,VALID,0,
2014-02-13, 03:37:05,VALID,1008.78,VALID,0,VALID,87.231,VALID,0,VALID,24.9023,VALID,266,VALID,0,
2014-02-13, 03:38:05,VALID,1008.78,VALID,0,VALID,87.2691,VALID,0,VALID,24.8809,VALID,267,VALID,0,
2014-02-13, 03:39:05,VALID,1008.77,VALID,0,VALID,87.2691,VALID,0,VALID,24.9023,VALID,266,VALID,0.183594,
2014-02-13, 03:40:05,VALID,1008.76,VALID,0,VALID,87.2462,VALID,0,VALID,24.9004,VALID,267,VALID,0.208594,
2014-02-13, 03:41:05,VALID,1008.76,VALID,0,VALID,87.2462,VALID,0,VALID,24.9023,VALID,267,VALID,0.289453,
2014-02-13, 03:42:05,VALID,1008.75,VALID,0,VALID,87.1852,VALID,0,VALID,24.8828,VALID,267,VALID,0.1,
2014-02-13, 03:43:05,VALID,1008.79,VALID,0,VALID,87.1776,VALID,0,VALID,24.8828,VALID,266,VALID,0.206641,
2014-02-13, 03:44:05,VALID,1008.8,VALID,0,VALID,87.17,VALID,0,VALID,24.8828,VALID,266,VALID,0.0804688,
2014-02-13, 03:45:05,VALID,1008.82,VALID,0,VALID,87.1929,VALID,0,VALID,24.8615,VALID,267,VALID,0,
2014-02-13, 03:46:05,VALID,1008.79,VALID,0,VALID,87.231,VALID,0,VALID,24.8633,VALID,266,VALID,0,
2014-02-13, 03:47:05,VALID,1008.81,VALID,0,VALID,87.3454,VALID,0,VALID,24.8633,VALID,266,VALID,0,